Погода в Ното

Италия     36°53′41″N   15°03′59″E
темп.,
°C
ветер,
м/с
пор.,
м/с
влажн.,
%
обл.,
%
осадки,
мм/ч
давл.,
гПа
погр.,
м
16 января, вс
вс1601:00+6зсз11740 0.0 102310
04:00+6зсз11720 0.0 102310
07:00+6зсз11720 0.0 102410
10:00+11юв10590 0.0 1026331
13:00+14юз22550 0.0 10251031
16:00+12ю23710 0.0 1025222
19:00+7з22830 0.0 102612
22:00+6зсз22750 0.0 102715
17 января, пн
пн1701:00+6зсз22660 0.0 102713
04:00+6зсз32690 0.0 102616
07:00+6сз22770 0.0 102615
10:00+11зюз11610 0.0 1026311
13:00+14сз12500 0.0 1024905
16:00+12ссз12670 0.0 1024173
19:00+7зюз11850 0.0 102610
22:00+7зюз11861 0.0 102710
18 января, вт
вт1801:00+6з11881 0.0 102710
04:00+6зсз22901 0.0 102711
07:00+5зсз22880 0.0 102812
10:00+11зюз12710 0.0 1029543
13:00+13юв216179 0.0 10281284
16:00+10ююв238394 0.1 1029257
19:00+7сз01910 0.1 103010
22:00+6сз11902 0.0 103110
19 января, ср
ср1901:00+6сз118610 0.0 103110
04:00+6сз12876 0.0 103111
07:00+6сз11857 0.0 103110
10:00+10юв23715 0.0 1031636
13:00+12ю446375 0.1 10301290
16:00+10юз347669 0.2 1029371
19:00+7з22845 0.3 102919
22:00+5з33832 0.0 103024
20 января, чт
чт2001:00+5з45872 0.0 102983
04:00+5зсз34803 0.0 102756
07:00+5з33814 0.0 102728
10:00+10зюз377110 0.0 1026815
13:00+11зюз676692 0.2 10231310
16:00+10зюз58704 0.0 10221073
19:00+6з339048 0.0 102231
22:00+6зюз4990100 0.0 1022170